Find Starlink 3054

NORAD ID: 49167 Int'l Des: 2021-082 Owner: SPXS Country: US Constellation: starlink operational
LEOCIRCULAR

当前视图

正在加载3D地球...

关于 Starlink 3054

正在加载描述...

即将过境

Passes for default location (London). Set your location on the main map for personalized predictions.

高度历史

Loading altitude history...

两行轨道根数

1 49167U 21082AP 26149.24317426 -.00003049 00000-0 -24786-3 0 9999
2 49167 70.0005 91.3466 0003022 267.1397 92.9417 14.98325139259241
Epoch: May 29, 2026 • Age: 20 hours

当前状态

高度 593.3 km
速度 7.56 km/s
星下点 -62.09°S, 32.09°E
发射日期 Sep 14, 2021
运行时间 4.7 years
类型 internet

技术详情

分类 Payload
质量 297.00 kg
干质量 275.00 kg
总质量 297.00 kg
长度 0.20 m
直径 2.80 m
跨度 9.00 m
形状 Box + pan
制造商 SPXS
平台类型 Starlink
阶段状态 In Orbit
所有者/国家 SPXS/US

Most Searched